This is the latest recevied weather packets stored in our database for station/object F6BIJ-13. If no packets are shown the sender has not sent any weather packets the latest 10 day(s).
| Time | Temp. | Humidity | Pressure | Rain* | Wind** | Luminosity | Snow |
|---|---|---|---|---|---|---|---|
| 1777565557 | 21.67° C | 54% | 1019.1 hPa | 0 mm | - | - | - |
| 1777565197 | 21.67° C | 54% | 1019.1 hPa | 0 mm | - | - | - |
| 1777564837 | 21.67° C | 54% | 1018.9 hPa | 0 mm | - | - | - |
| 1777564477 | 22.22° C | 54% | 1018.9 hPa | 0 mm | - | - | - |
| 1777564117 | 22.78° C | 52% | 1018.7 hPa | 0 mm | - | - | - |
| 1777563757 | 22.78° C | 47% | 1018.6 hPa | 0 mm | - | - | - |
| 1777563397 | 22.78° C | 50% | 1018.6 hPa | 0 mm | - | - | - |
| 1777563037 | 22.78° C | 47% | 1018.5 hPa | 0 mm | - | - | - |
| 1777562677 | 22.22° C | 49% | 1018.5 hPa | 0 mm | - | - | - |
| 1777562317 | 22.78° C | 47% | 1018.4 hPa | 0 mm | - | - | - |
| 1777561957 | 22.78° C | 47% | 1018.5 hPa | 0 mm | - | - | - |
| 1777561597 | 22.22° C | 47% | 1018.4 hPa | 0 mm | - | - | - |
| 1777561237 | 22.78° C | 47% | 1018.4 hPa | 0 mm | - | - | - |
| 1777560877 | 22.78° C | 47% | 1018.3 hPa | 0 mm | - | - | - |
| 1777560517 | 21.67° C | 49% | 1018.4 hPa | 0 mm | - | - | - |
| 1777560157 | 22.22° C | 49% | 1018.3 hPa | 0 mm | - | - | - |
| 1777559797 | 22.22° C | 48% | 1018.4 hPa | 0 mm | - | - | - |
| 1777559437 | 23.33° C | 48% | 1018.4 hPa | 0 mm | - | - | - |
| 1777559077 | 22.78° C | 48% | 1018.4 hPa | 0 mm | - | - | - |
| 1777558717 | 23.33° C | 48% | 1018.5 hPa | 0 mm | - | - | - |
| 1777558357 | 23.33° C | 49% | 1018.5 hPa | 0 mm | - | - | - |
| 1777557997 | 22.22° C | 48% | 1018.5 hPa | 0 mm | - | - | - |
| 1777557650 | 23.33° C | 50% | 1018.6 hPa | 0 mm | - | - | - |
| 1777557277 | 22.22° C | 48% | 1018.6 hPa | 0 mm | - | - | - |
| 1777556918 | 22.78° C | 49% | 1018.7 hPa | 0 mm | - | - | - |
* Rain latest 24 hours (hover to see other rain measurements)
** Current wind speed in m/s (hover to see current wind gust speed)